Change the Weather History Date:

Thursday, December 6, 2012

  Actual Average Record
Temperature  
Mean Temperature 48 °F 39 °F  
Max Temperature 66 °F 54 °F 74 °F (1962)
Min Temperature 30 °F 23 °F 5 °F (2013)
Degree Days  
Heating Degree Days 17 26  
Month to date heating degree days 114 155  
Since 1 July heating degree days 935 1056  
Cooling Degree Days 0 0  
Month to date cooling degree days 0 0  
Year to date cooling degree days 1161 1104  
Moisture  
Dew Point 32 °F    
Average Humidity 60    
Maximum Humidity 92    
Minimum Humidity 28    
Precipitation  
Precipitation 0.00 in 0.02 in 2.28 in (1966)
Month to date precipitation 0.02 0.11  
Year to date precipitation 2.73 4.49  
Snow  
Snow 0.00 in 0.10 in 1.30 in (1997)
Month to date snowfall 0.0 0.2  
Since 1 July snowfall 0.0 0.6  
Snow Depth 0.00 in    
Sea Level Pressure  
Sea Level Pressure 29.99 in    
Wind  
Wind Speed 5 mph (NW)    
Max Wind Speed 20 mph    
Max Gust Speed 29 mph    
Visibility 10 miles    
Events      
T = Trace of Precipitation, MM = Missing Value Source: NWS Daily Summary

Daily Weather History Graph

Daily Weather History Graph

Search for Another Location

Airport or City:

Trip Planner

Search our weather history database for the weather conditions in past years. The results will help you decide how hot, cold, wet, or windy it might be!

Date:

Astronomy

Dec. 06, 2012 Rise Set
Actual Time 6:54 AM PST 4:35 PM PST
Civil Twilight 6:25 AM PST 5:04 PM PST
Nautical Twilight 5:52 AM PST 5:36 PM PST
Astronomical Twilight 5:20 AM PST 6:08 PM PST
Moon No Moon Rise 11:56 AM PST (12/6)
Length of Visible Light 10h 39m
Length of Day
9h 41m
Waning Gibbous, 48% of the Moon is Illuminated
Dec 6
Waning Gibbous
Dec 13
New
Dec 19
First Quarter
Dec 28
Full
Jan 4
Last Quarter

Hourly Weather History & Observations

Time (PST) Temp. Windchill Dew Point Humidity Pressure Visibility Wind Dir Wind Speed Gust Speed Precip Events Conditions
12:56 AM 39.0 °F 34.8 °F 35.1 °F 86% 30.03 in 10.0 mi ENE 5.8 mph - N/A   Mostly Cloudy
1:56 AM 37.0 °F 33.3 °F 34.0 °F 89% 30.03 in 10.0 mi NW 4.6 mph - N/A   Mostly Cloudy
2:56 AM 37.9 °F 35.5 °F 34.0 °F 86% 30.02 in 10.0 mi Variable 3.5 mph - N/A   Clear
3:56 AM 37.0 °F 34.5 °F 34.0 °F 89% 30.02 in 10.0 mi WNW 3.5 mph - N/A   Clear
4:56 AM 36.0 °F 33.3 °F 33.1 °F 89% 30.01 in 10.0 mi NNW 3.5 mph - N/A   Clear
5:56 AM 34.0 °F 28.8 °F 30.9 °F 89% 30.05 in 10.0 mi WNW 5.8 mph - N/A   Clear
6:56 AM 32.0 °F 27.5 °F 30.0 °F 92% 30.06 in 10.0 mi NE 4.6 mph - N/A   Clear
7:56 AM 37.0 °F 32.4 °F 33.1 °F 86% 30.05 in 10.0 mi NW 5.8 mph - N/A   Clear
8:56 AM 48.0 °F - 37.9 °F 68% 30.03 in 10.0 mi NW 4.6 mph - N/A   Clear
9:56 AM 55.0 °F - 37.0 °F 51% 30.02 in 10.0 mi NW 6.9 mph - N/A   Clear
10:56 AM 60.1 °F - 36.0 °F 41% 29.99 in 10.0 mi Variable 3.5 mph - N/A   Clear
11:56 AM 62.1 °F - 33.1 °F 34% 29.95 in 10.0 mi NW 4.6 mph - N/A   Clear
12:56 PM 64.0 °F - 32.0 °F 30% 29.93 in 10.0 mi Calm Calm - N/A   Clear
1:56 PM 64.0 °F - 32.0 °F 30% 29.90 in 10.0 mi West 6.9 mph - N/A   Clear
2:56 PM 64.9 °F - 30.9 °F 28% 29.89 in 10.0 mi West 4.6 mph - N/A   Clear
3:56 PM 63.0 °F - 30.0 °F 29% 29.89 in 10.0 mi West 6.9 mph - N/A   Clear
4:56 PM 53.1 °F - 30.0 °F 41% 29.93 in 10.0 mi WNW 9.2 mph - N/A   Clear
5:56 PM 48.9 °F - 28.9 °F 46% 29.96 in 10.0 mi NNW 4.6 mph - N/A   Clear
6:56 PM 46.9 °F - 30.9 °F 54% 29.99 in 10.0 mi Calm Calm - N/A   Clear
7:56 PM 41.0 °F - 26.1 °F 55% 30.00 in 10.0 mi Calm Calm - N/A   Clear
8:56 PM 39.9 °F 35.8 °F 26.1 °F 58% 30.01 in 10.0 mi NNW 5.8 mph - N/A   Clear
9:56 PM 36.0 °F 31.1 °F 24.1 °F 62% 30.01 in 10.0 mi NNW 5.8 mph - N/A   Clear
10:56 PM 48.9 °F - 28.0 °F 44% 30.00 in 10.0 mi NW 13.8 mph 21.9 mph N/A   Clear
11:56 PM 48.9 °F - 30.9 °F 50% 30.00 in 10.0 mi North 15.0 mph - N/A   Clear